Simultaneous Nadir Overpasses (SNOs) Predictions

Prediction of SNOs between FY3D and NOAA-19 Satellite Orbit:

Table of predicted SNOs for the next 14.0 days since TLE Epoch: 4/25/2020
Index Date (FY3D) Time (FY3D) Lat,Lon (FY3D) SZA (FY3D ) Date (NOAA-19) Time (NOAA-19) Lat,Lon (NOAA-19) SZA (NOAA-19 ) Distance(km) Time Diff (sec)
1 05/04/2020 12:19:27 -79.46, 142.32 115.08 05/04/2020 12:18:18 -79.46, 142.27 115.04 1.23 69
2 05/04/2020 13:10:13 79.48, -50.59 64.96 05/04/2020 13:09:23 79.46, -50.49 64.95 3.02 50
3 05/04/2020 14:00:56 -79.45, 116.97 115.11 05/04/2020 14:00:18 -79.48, 116.95 115.07 3.07 38
4 05/04/2020 14:51:42 79.48, -75.94 64.93 05/04/2020 14:51:23 79.48, -75.81 64.93 2.71 19
5 05/04/2020 15:42:26 -79.48, 91.35 115.08 05/04/2020 15:42:19 -79.47, 91.34 115.08 1.53 7
6 05/04/2020 16:33:11 79.48,-101.29 64.91 05/04/2020 16:33:24 79.47,-101.42 64.91 2.56 13
7 05/04/2020 17:23:55 -79.48, 66.00 115.10 05/04/2020 17:24:19 -79.49, 66.02 115.11 0.90 24
8 05/04/2020 18:14:40 79.48,-126.65 64.88 05/04/2020 18:15:24 79.49,-126.74 64.89 2.41 44
9 05/04/2020 19:05:24 -79.48, 40.65 115.13 05/04/2020 19:06:19 -79.51, 40.70 115.13 3.21 55
10 05/04/2020 19:56:10 79.51,-152.27 64.91 05/04/2020 19:57:25 79.48,-152.34 64.87 3.36 75




NCC Satellite Simultaneous Nadir Overpasses (SNOs) Prediction Service
